OE2SWM Weather Reports


Display with metric or nautical units.
time (UTC)temp
F
wind
direction
speed
MPH
gust
MPH
rain 1hr
in
rain 24hr
in
rain mn
in
humidity
%
barometer
mb
20260502163000 71 0 0.0 0.0 0.00 0.00 0.00 25 972.0
20260502162000 71 0 0.0 0.0 0.00 0.00 0.00 24 972.0
20260502161000 73 0 0.0 0.0 0.00 0.00 0.00 23 973.0
20260502152000 73 0 0.0 0.0 0.00 0.00 0.00 24 973.0
20260502151000 73 0 0.0 0.0 0.00 0.00 0.00 24 973.0
20260502123000 69 0 0.0 0.0 0.00 0.00 0.00 27 974.0
20260502122000 69 0 0.0 0.0 0.00 0.00 0.00 28 974.0
20260502121000 69 0 0.0 0.0 0.00 0.00 0.00 30 974.0
20260502115000 68 0 0.0 0.0 0.00 0.00 0.00 30 974.0
20260502114000 68 0 0.0 0.0 0.00 0.00 0.00 30 974.0
20260502113000 68 0 0.0 0.0 0.00 0.00 0.00 30 975.0
20260502112000 68 0 0.0 0.0 0.00 0.00 0.00 31 975.0
20260502111000 68 0 0.0 0.0 0.00 0.00 0.00 30 975.0
20260502110000 66 0 0.0 0.0 0.00 0.00 0.00 34 975.0
20260502105000 66 0 0.0 0.0 0.00 0.00 0.00 35 975.0
20260502104000 66 0 0.0 0.0 0.00 0.00 0.00 33 975.0
20260502103000 64 0 0.0 0.0 0.00 0.00 0.00 39 975.0
20260502102000 64 0 0.0 0.0 0.00 0.00 0.00 38 975.0
20260502101000 64 0 0.0 0.0 0.00 0.00 0.00 43 975.0
20260502091000 59 0 0.0 0.0 0.00 0.00 0.00 48 976.0
20260502071000 50 0 0.0 0.0 0.00 0.00 0.00 65 977.0
20260502070000 50 0 0.0 0.0 0.00 0.00 0.00 64 977.0
20260502065000 50 0 0.0 0.0 0.00 0.00 0.00 64 977.0
20260502064000 50 0 0.0 0.0 0.00 0.00 0.00 63 977.0
20260502063000 50 0 0.0 0.0 0.00 0.00 0.00 65 977.0
20260502062000 50 0 0.0 0.0 0.00 0.00 0.00 66 978.0
20260502061000 50 0 0.0 0.0 0.00 0.00 0.00 63 978.0
20260502060000 50 0 0.0 0.0 0.00 0.00 0.00 64 978.0
20260502055000 48 0 0.0 0.0 0.00 0.00 0.00 64 978.0
20260502054000 51 0 0.0 0.0 0.00 0.00 0.00 60 978.0
20260502053000 57 0 0.0 0.0 0.00 0.00 0.00 51 978.0
20260502052000 64 0 0.0 0.0 0.00 0.00 0.00 43 978.0
20260502051000 68 0 0.0 0.0 0.00 0.00 0.00 42 978.0
20260502050000 68 0 0.0 0.0 0.00 0.00 0.00 42 978.0
20260502045000 62 0 0.0 0.0 0.00 0.00 0.00 48 978.0
20260502044000 57 0 0.0 0.0 0.00 0.00 0.00 53 978.0
20260502043000 50 0 0.0 0.0 0.00 0.00 0.00 63 978.0
20260502042000 39 0 0.0 0.0 0.00 0.00 0.00 83 978.0
20260502041000 30 0 0.0 0.0 0.00 0.00 0.00 90 978.0
20260502040000 30 0 0.0 0.0 0.00 0.00 0.00 92 978.0
20260502035000 30 0 0.0 0.0 0.00 0.00 0.00 90 978.0
20260502034000 32 0 0.0 0.0 0.00 0.00 0.00 88 978.0
20260502033000 32 0 0.0 0.0 0.00 0.00 0.00 91 978.0
20260502032000 32 0 0.0 0.0 0.00 0.00 0.00 92 978.0
20260502031000 32 0 0.0 0.0 0.00 0.00 0.00 91 978.0
20260502030000 32 0 0.0 0.0 0.00 0.00 0.00 90 978.0
20260502025000 32 0 0.0 0.0 0.00 0.00 0.00 91 978.0
20260502024000 32 0 0.0 0.0 0.00 0.00 0.00 91 978.0
20260502023000 32 0 0.0 0.0 0.00 0.00 0.00 92 978.0
20260502022000 32 0 0.0 0.0 0.00 0.00 0.00 90 978.0
20260502021000 32 0 0.0 0.0 0.00 0.00 0.00 92 978.0
20260502020000 33 0 0.0 0.0 0.00 0.00 0.00 90 978.0
20260502015000 33 0 0.0 0.0 0.00 0.00 0.00 91 978.0
20260502014000 33 0 0.0 0.0 0.00 0.00 0.00 89 978.0
20260502013000 33 0 0.0 0.0 0.00 0.00 0.00 91 978.0
20260502012000 33 0 0.0 0.0 0.00 0.00 0.00 89 978.0
20260502011000 33 0 0.0 0.0 0.00 0.00 0.00 89 978.0
20260502010000 33 0 0.0 0.0 0.00 0.00 0.00 89 978.0
20260502005000 33 0 0.0 0.0 0.00 0.00 0.00 89 978.0
20260502004000 33 0 0.0 0.0 0.00 0.00 0.00 90 978.0
20260502003000 33 0 0.0 0.0 0.00 0.00 0.00 86 978.0
20260502002000 33 0 0.0 0.0 0.00 0.00 0.00 87 978.0
20260502001000 35 0 0.0 0.0 0.00 0.00 0.00 85 978.0
20260502000000 35 0 0.0 0.0 0.00 0.00 0.00 87 978.0
20260501235000 35 0 0.0 0.0 0.00 0.00 0.00 87 978.0
20260501234000 35 0 0.0 0.0 0.00 0.00 0.00 86 978.0
20260501233000 35 0 0.0 0.0 0.00 0.00 0.00 86 978.0
20260501232000 35 0 0.0 0.0 0.00 0.00 0.00 86 978.0
20260501231000 35 0 0.0 0.0 0.00 0.00 0.00 86 978.0
20260501230000 37 0 0.0 0.0 0.00 0.00 0.00 86 978.0
20260501225000 37 0 0.0 0.0 0.00 0.00 0.00 83 978.0
20260501224000 37 0 0.0 0.0 0.00 0.00 0.00 84 978.0
20260501223000 37 0 0.0 0.0 0.00 0.00 0.00 84 978.0
20260501222000 37 0 0.0 0.0 0.00 0.00 0.00 84 978.0
20260501221000 37 0 0.0 0.0 0.00 0.00 0.00 85 978.0
20260501220000 39 0 0.0 0.0 0.00 0.00 0.00 83 978.0
20260501215000 39 0 0.0 0.0 0.00 0.00 0.00 85 978.0
20260501214000 39 0 0.0 0.0 0.00 0.00 0.00 83 978.0
20260501213000 39 0 0.0 0.0 0.00 0.00 0.00 80 978.0
20260501212000 39 0 0.0 0.0 0.00 0.00 0.00 82 978.0
20260501211000 39 0 0.0 0.0 0.00 0.00 0.00 82 978.0
20260501210000 41 0 0.0 0.0 0.00 0.00 0.00 79 978.0
20260501205000 41 0 0.0 0.0 0.00 0.00 0.00 80 978.0
20260501204000 41 0 0.0 0.0 0.00 0.00 0.00 79 978.0
20260501203000 41 0 0.0 0.0 0.00 0.00 0.00 77 978.0
20260501202000 42 0 0.0 0.0 0.00 0.00 0.00 77 978.0
20260501201000 42 0 0.0 0.0 0.00 0.00 0.00 77 978.0
20260501200000 42 0 0.0 0.0 0.00 0.00 0.00 76 978.0
20260501195000 44 0 0.0 0.0 0.00 0.00 0.00 75 978.0
20260501194000 44 0 0.0 0.0 0.00 0.00 0.00 73 978.0
20260501193000 44 0 0.0 0.0 0.00 0.00 0.00 73 978.0
20260501192000 46 0 0.0 0.0 0.00 0.00 0.00 71 978.0
20260501191000 46 0 0.0 0.0 0.00 0.00 0.00 71 978.0
20260501190000 48 0 0.0 0.0 0.00 0.00 0.00 67 977.0
20260501185000 50 0 0.0 0.0 0.00 0.00 0.00 66 977.0
20260501184000 50 0 0.0 0.0 0.00 0.00 0.00 63 977.0
20260501183000 50 0 0.0 0.0 0.00 0.00 0.00 63 977.0
20260501182000 51 0 0.0 0.0 0.00 0.00 0.00 61 977.0
20260501181000 53 0 0.0 0.0 0.00 0.00 0.00 58 977.0
20260501180000 55 0 0.0 0.0 0.00 0.00 0.00 55 977.0
20260501175000 55 0 0.0 0.0 0.00 0.00 0.00 55 977.0
20260501174000 57 0 0.0 0.0 0.00 0.00 0.00 50 976.0
20260501173000 59 0 0.0 0.0 0.00 0.00 0.00 45 976.0
20260501172000 60 0 0.0 0.0 0.00 0.00 0.00 42 976.0
20260501171000 60 0 0.0 0.0 0.00 0.00 0.00 42 976.0
20260501170000 62 0 0.0 0.0 0.00 0.00 0.00 40 976.0
20260501165000 62 0 0.0 0.0 0.00 0.00 0.00 39 976.0
20260501164000 62 0 0.0 0.0 0.00 0.00 0.00 39 976.0